Time,TemperatureF,DewpointF,PressureIn,WindDirection,WindDirectionDegrees,WindSpeedMPH,WindSpeedGustMPH,Humidity,HourlyPrecipIn,Conditions,Clouds,dailyrainin,SoftwareType,DateUTC
2013-05-27 00:14:00,44.1,42.0,29.93,ENE,73,0.0,0.0,92,0.00,,,0.02,weatherlink.com 1.10,2013-05-27 07:14:00,
2013-05-27 00:29:00,43.5,42.0,29.93,ENE,73,0.0,0.0,93,0.00,,,0.00,weatherlink.com 1.10,2013-05-27 07:29:00,
2013-05-27 00:44:00,43.0,41.0,29.93,ENE,73,0.0,0.0,93,0.00,,,0.00,weatherlink.com 1.10,2013-05-27 07:44:00,
2013-05-27 00:59:00,42.4,41.0,29.92,ENE,73,0.0,0.0,93,0.00,,,0.00,weatherlink.com 1.10,2013-05-27 07:59:00,
2013-05-27 01:14:00,41.7,40.0,29.92,ENE,73,0.0,0.0,93,0.00,,,0.00,weatherlink.com 1.10,2013-05-27 08:14:00,
2013-05-27 01:29:00,41.1,39.0,29.92,ENE,73,0.0,0.0,93,0.00,,,0.00,weatherlink.com 1.10,2013-05-27 08:29:00,
2013-05-27 01:44:00,40.6,39.0,29.92,ENE,73,0.0,0.0,93,0.00,,,0.00,weatherlink.com 1.10,2013-05-27 08:44:00,
2013-05-27 01:59:00,40.1,39.0,29.92,ENE,73,0.0,0.0,94,0.00,,,0.00,weatherlink.com 1.10,2013-05-27 08:59:00,
2013-05-27 02:14:00,39.6,38.0,29.92,ENE,73,0.0,0.0,94,0.00,,,0.00,weatherlink.com 1.10,2013-05-27 09:14:00,
2013-05-27 02:29:00,39.1,38.0,29.91,ENE,73,0.0,0.0,94,0.00,,,0.00,weatherlink.com 1.10,2013-05-27 09:29:00,
2013-05-27 02:44:00,38.7,37.0,29.91,ENE,73,0.0,0.0,94,0.00,,,0.00,weatherlink.com 1.10,2013-05-27 09:44:00,
2013-05-27 02:59:00,38.2,37.0,29.91,ENE,73,0.0,0.0,94,0.00,,,0.00,weatherlink.com 1.10,2013-05-27 09:59:00,
2013-05-27 03:14:00,37.8,37.0,29.91,ENE,73,0.0,0.0,95,0.00,,,0.00,weatherlink.com 1.10,2013-05-27 10:14:00,
2013-05-27 03:29:00,37.4,36.0,29.90,ENE,73,0.0,0.0,94,0.00,,,0.00,weatherlink.com 1.10,2013-05-27 10:29:00,
2013-05-27 03:44:00,37.0,36.0,29.90,ENE,73,0.0,0.0,95,0.00,,,0.00,weatherlink.com 1.10,2013-05-27 10:44:00,
2013-05-27 03:59:00,36.6,35.0,29.89,ENE,73,0.0,0.0,95,0.00,,,0.00,weatherlink.com 1.10,2013-05-27 10:59:00,
2013-05-27 04:15:00,36.1,35.0,29.89,ENE,73,0.0,0.0,95,0.00,,,0.00,weatherlink.com 1.10,2013-05-27 11:15:00,
2013-05-27 04:30:00,35.8,35.0,29.89,ENE,73,0.0,0.0,95,0.00,,,0.00,weatherlink.com 1.10,2013-05-27 11:30:00,
2013-05-27 04:45:00,35.5,34.0,29.89,ENE,73,0.0,0.0,95,0.00,,,0.00,weatherlink.com 1.10,2013-05-27 11:45:00,
2013-05-27 05:00:00,35.3,34.0,29.89,ENE,73,0.0,0.0,95,0.00,,,0.00,weatherlink.com 1.10,2013-05-27 12:00:00,
2013-05-27 05:15:00,35.1,34.0,29.88,ENE,73,0.0,0.0,95,0.00,,,0.00,weatherlink.com 1.10,2013-05-27 12:15:00,
2013-05-27 05:30:00,34.8,34.0,29.88,ENE,73,0.0,0.0,95,0.00,,,0.00,weatherlink.com 1.10,2013-05-27 12:30:00,
2013-05-27 05:45:00,34.6,33.0,29.88,ENE,73,0.0,0.0,95,0.00,,,0.00,weatherlink.com 1.10,2013-05-27 12:45:00,
2013-05-27 06:00:00,34.5,34.0,29.87,ENE,73,0.0,0.0,96,0.00,,,0.00,weatherlink.com 1.10,2013-05-27 13:00:00,
2013-05-27 06:15:00,34.7,34.0,29.88,ENE,73,0.0,0.0,96,0.00,,,0.00,weatherlink.com 1.10,2013-05-27 13:15:00,
2013-05-27 06:30:00,35.3,35.0,29.87,ENE,73,0.0,0.0,97,0.00,,,0.00,weatherlink.com 1.10,2013-05-27 13:30:00,
2013-05-27 06:45:00,36.3,36.0,29.86,ENE,73,0.0,0.0,97,0.00,,,0.00,weatherlink.com 1.10,2013-05-27 13:45:00,
2013-05-27 07:00:00,37.6,37.0,29.86,ENE,73,0.0,0.0,97,0.00,,,0.00,weatherlink.com 1.10,2013-05-27 14:00:00,
2013-05-27 07:15:00,38.9,38.0,29.86,ENE,73,0.0,0.0,97,0.00,,,0.00,weatherlink.com 1.10,2013-05-27 14:15:00,
2013-05-27 07:30:00,39.9,39.0,29.86,ENE,73,0.0,0.0,98,0.00,,,0.00,weatherlink.com 1.10,2013-05-27 14:30:00,
2013-05-27 07:45:00,40.7,40.0,29.86,ENE,73,0.0,0.0,98,0.00,,,0.00,weatherlink.com 1.10,2013-05-27 14:45:00,
2013-05-27 08:00:00,41.6,41.0,29.85,ENE,73,0.0,0.0,98,0.00,,,0.00,weatherlink.com 1.10,2013-05-27 15:00:00,
2013-05-27 08:15:00,42.8,42.0,29.85,ENE,73,0.0,0.0,98,0.00,,,0.00,weatherlink.com 1.10,2013-05-27 15:15:00,
2013-05-27 08:30:00,43.8,43.0,29.84,ENE,73,0.0,0.0,98,0.00,,,0.00,weatherlink.com 1.10,2013-05-27 15:30:00,
2013-05-27 08:45:00,46.0,43.0,29.83,East,90,1.0,2.0,90,0.00,,,0.00,weatherlink.com 1.10,2013-05-27 15:45:00,
2013-05-27 09:00:00,47.9,44.0,29.83,East,90,0.0,0.0,86,0.00,,,0.00,weatherlink.com 1.10,2013-05-27 16:00:00,
2013-05-27 09:15:00,49.9,45.0,29.82,East,95,0.0,1.0,82,0.00,,,0.00,weatherlink.com 1.10,2013-05-27 16:15:00,
2013-05-27 09:30:00,51.0,44.0,29.81,East,95,0.0,0.0,76,0.00,,,0.00,weatherlink.com 1.10,2013-05-27 16:30:00,
2013-05-27 09:45:00,51.9,45.0,29.81,East,95,0.0,0.0,76,0.00,,,0.00,weatherlink.com 1.10,2013-05-27 16:45:00,
2013-05-27 10:00:00,52.2,45.0,29.80,East,95,0.0,0.0,75,0.00,,,0.00,weatherlink.com 1.10,2013-05-27 17:00:00,
2013-05-27 10:15:00,52.4,46.0,29.80,East,95,0.0,0.0,78,0.00,,,0.00,weatherlink.com 1.10,2013-05-27 17:15:00,
2013-05-27 10:30:00,52.3,45.0,29.80,NNE,15,0.0,1.0,75,0.00,,,0.00,weatherlink.com 1.10,2013-05-27 17:30:00,
2013-05-27 10:45:00,52.6,46.0,29.80,NNE,15,0.0,0.0,79,0.00,,,0.00,weatherlink.com 1.10,2013-05-27 17:45:00,
2013-05-27 11:00:00,52.6,47.0,29.80,NNE,15,0.0,0.0,80,0.00,,,0.00,weatherlink.com 1.10,2013-05-27 18:00:00,
2013-05-27 11:15:00,52.9,47.0,29.80,NNE,20,0.0,0.0,79,0.00,,,0.00,weatherlink.com 1.10,2013-05-27 18:15:00,
2013-05-27 11:30:00,52.7,48.0,29.80,NE,36,0.0,0.0,84,0.00,,,0.00,weatherlink.com 1.10,2013-05-27 18:30:00,
2013-05-27 11:45:00,52.6,49.0,29.80,NE,36,0.0,0.0,86,0.00,,,0.00,weatherlink.com 1.10,2013-05-27 18:45:00,
2013-05-27 12:00:00,52.5,48.0,29.79,NE,36,0.0,0.0,85,0.00,,,0.00,weatherlink.com 1.10,2013-05-27 19:00:00,
2013-05-27 12:15:00,52.8,50.0,29.79,NE,36,0.0,0.0,89,0.01,,,0.01,weatherlink.com 1.10,2013-05-27 19:15:00,
2013-05-27 12:30:00,53.0,50.0,29.79,NE,36,0.0,0.0,90,0.01,,,0.01,weatherlink.com 1.10,2013-05-27 19:30:00,
2013-05-27 12:45:00,53.0,48.0,29.79,East,97,0.0,2.0,83,0.01,,,0.01,weatherlink.com 1.10,2013-05-27 19:45:00,
2013-05-27 13:01:00,52.7,49.0,29.79,ENE,72,0.0,0.0,87,0.01,,,0.01,weatherlink.com 1.10,2013-05-27 20:01:00,
2013-05-27 13:16:00,52.5,49.0,29.78,SSE,152,0.0,0.0,88,0.00,,,0.01,weatherlink.com 1.10,2013-05-27 20:16:00,
2013-05-27 13:31:00,52.3,49.0,29.78,South,170,0.0,0.0,89,0.01,,,0.02,weatherlink.com 1.10,2013-05-27 20:31:00,
2013-05-27 13:46:00,52.0,48.0,29.78,ESE,103,0.0,0.0,86,0.01,,,0.02,weatherlink.com 1.10,2013-05-27 20:46:00,
2013-05-27 14:01:00,51.8,49.0,29.79,ESE,103,0.0,0.0,89,0.01,,,0.02,weatherlink.com 1.10,2013-05-27 21:01:00,
2013-05-27 14:16:00,51.3,49.0,29.78,ESE,103,0.0,0.0,91,0.02,,,0.03,weatherlink.com 1.10,2013-05-27 21:16:00,
2013-05-27 14:31:00,50.9,48.0,29.78,ESE,103,0.0,0.0,91,0.02,,,0.04,weatherlink.com 1.10,2013-05-27 21:31:00,
2013-05-27 14:46:00,50.8,48.0,29.79,ESE,103,0.0,0.0,91,0.03,,,0.05,weatherlink.com 1.10,2013-05-27 21:46:00,
2013-05-27 15:01:00,50.8,49.0,29.78,ESE,103,0.0,0.0,92,0.04,,,0.06,weatherlink.com 1.10,2013-05-27 22:01:00,
2013-05-27 15:16:00,50.9,49.0,29.78,ESE,103,0.0,0.0,93,0.03,,,0.06,weatherlink.com 1.10,2013-05-27 22:16:00,
2013-05-27 15:31:00,51.2,49.0,29.78,ESE,103,0.0,1.0,92,0.03,,,0.07,weatherlink.com 1.10,2013-05-27 22:31:00,
2013-05-27 15:46:00,51.2,49.0,29.78,ESE,119,0.0,0.0,93,0.03,,,0.08,weatherlink.com 1.10,2013-05-27 22:46:00,
2013-05-27 16:01:00,51.3,49.0,29.78,South,171,0.0,0.0,90,0.02,,,0.08,weatherlink.com 1.10,2013-05-27 23:01:00,
2013-05-27 16:16:00,51.4,50.0,29.78,WSW,255,1.0,1.0,93,0.02,,,0.09,weatherlink.com 1.10,2013-05-27 23:16:00,
2013-05-27 16:31:00,51.2,48.0,29.78,NW,321,0.0,0.0,90,0.01,,,0.09,weatherlink.com 1.10,2013-05-27 23:31:00,
2013-05-27 16:46:00,51.2,49.0,29.78,ENE,60,0.0,0.0,92,0.02,,,0.10,weatherlink.com 1.10,2013-05-27 23:46:00,
2013-05-27 17:01:00,51.1,49.0,29.78,ENE,60,0.0,0.0,93,0.02,,,0.10,weatherlink.com 1.10,2013-05-28 00:01:00,
2013-05-27 17:16:00,51.0,49.0,29.78,ENE,60,0.0,0.0,93,0.01,,,0.10,weatherlink.com 1.10,2013-05-28 00:16:00,
2013-05-27 17:31:00,50.9,49.0,29.78,ENE,60,0.0,0.0,94,0.01,,,0.10,weatherlink.com 1.10,2013-05-28 00:31:00,
2013-05-27 17:46:00,50.8,49.0,29.77,ENE,60,0.0,0.0,93,0.01,,,0.11,weatherlink.com 1.10,2013-05-28 00:46:00,
2013-05-27 18:01:00,50.9,49.0,29.77,ENE,60,0.0,0.0,93,0.01,,,0.11,weatherlink.com 1.10,2013-05-28 01:01:00,
2013-05-27 18:16:00,50.9,49.0,29.77,ENE,60,0.0,0.0,94,0.01,,,0.11,weatherlink.com 1.10,2013-05-28 01:16:00,
2013-05-27 18:31:00,50.9,49.0,29.77,ENE,60,0.0,0.0,93,0.02,,,0.12,weatherlink.com 1.10,2013-05-28 01:31:00,
2013-05-27 18:46:00,50.9,50.0,29.77,ENE,60,0.0,0.0,95,0.01,,,0.12,weatherlink.com 1.10,2013-05-28 01:46:00,
2013-05-27 19:01:00,50.9,50.0,29.77,ENE,60,0.0,0.0,95,0.01,,,0.12,weatherlink.com 1.10,2013-05-28 02:01:00,
2013-05-27 19:16:00,50.9,49.0,29.77,ENE,60,0.0,0.0,94,0.01,,,0.12,weatherlink.com 1.10,2013-05-28 02:16:00,
2013-05-27 19:31:00,50.7,49.0,29.76,ENE,60,0.0,0.0,95,0.00,,,0.12,weatherlink.com 1.10,2013-05-28 02:31:00,
2013-05-27 19:46:00,50.6,49.0,29.76,ENE,60,0.0,0.0,95,0.00,,,0.12,weatherlink.com 1.10,2013-05-28 02:46:00,
2013-05-27 20:01:00,50.5,49.0,29.76,ENE,60,0.0,0.0,95,0.00,,,0.12,weatherlink.com 1.10,2013-05-28 03:01:00,
2013-05-27 20:16:00,50.2,49.0,29.76,ENE,60,0.0,0.0,95,0.00,,,0.12,weatherlink.com 1.10,2013-05-28 03:16:00,
2013-05-27 20:31:00,50.0,49.0,29.77,ENE,60,0.0,0.0,96,0.00,,,0.12,weatherlink.com 1.10,2013-05-28 03:31:00,
2013-05-27 20:46:00,49.9,49.0,29.77,ENE,60,0.0,0.0,96,0.00,,,0.12,weatherlink.com 1.10,2013-05-28 03:46:00,
2013-05-27 21:01:00,49.7,49.0,29.77,ENE,60,0.0,0.0,96,0.00,,,0.12,weatherlink.com 1.10,2013-05-28 04:01:00,
2013-05-27 21:16:00,49.5,48.0,29.77,ENE,60,0.0,0.0,96,0.00,,,0.12,weatherlink.com 1.10,2013-05-28 04:16:00,
2013-05-27 21:31:00,49.3,48.0,29.78,ENE,60,0.0,0.0,96,0.00,,,0.12,weatherlink.com 1.10,2013-05-28 04:31:00,
2013-05-27 21:46:00,49.0,48.0,29.78,ENE,60,0.0,0.0,96,0.00,,,0.12,weatherlink.com 1.10,2013-05-28 04:46:00,
2013-05-27 22:01:00,48.9,48.0,29.78,ENE,60,0.0,0.0,96,0.01,,,0.13,weatherlink.com 1.10,2013-05-28 05:01:00,
2013-05-27 22:16:00,48.9,48.0,29.78,ENE,60,0.0,0.0,96,0.01,,,0.13,weatherlink.com 1.10,2013-05-28 05:16:00,
2013-05-27 22:31:00,48.7,48.0,29.78,ENE,60,0.0,0.0,96,0.01,,,0.13,weatherlink.com 1.10,2013-05-28 05:31:00,
2013-05-27 22:46:00,48.5,48.0,29.78,ENE,60,0.0,0.0,96,0.01,,,0.13,weatherlink.com 1.10,2013-05-28 05:46:00,
2013-05-27 23:01:00,48.5,48.0,29.78,ENE,60,0.0,0.0,97,0.00,,,0.13,weatherlink.com 1.10,2013-05-28 06:01:00,
2013-05-27 23:16:00,48.4,48.0,29.78,ENE,60,0.0,0.0,97,0.00,,,0.13,weatherlink.com 1.10,2013-05-28 06:16:00,
2013-05-27 23:31:00,48.4,48.0,29.78,ENE,60,0.0,0.0,97,0.00,,,0.13,weatherlink.com 1.10,2013-05-28 06:31:00,
2013-05-27 23:46:00,48.2,47.0,29.78,ENE,60,0.0,0.0,97,0.00,,,0.13,weatherlink.com 1.10,2013-05-28 06:46:00,